Regional Weather Roundup
Issued by NWS

Home | Current Version | Previous Version | Graphics & Text | Print | Product List | Glossary On
Versions: 1 2 3 4 5 6 7 8 9 10 11 12 13 14 15 16 17 18 19 20 21 22 23 24 25 26 27 28 29 30 31 32 33 34 35 36 37 38 39 40 41 42 43 44 45 46 47 48 49 50
000
ASUS43 KBIS 172101
RWRND

NORTH DAKOTA REGIONAL WEATHER ROUNDUP
NATIONAL WEATHER SERVICE BISMARCK ND
400 PM CDT FRI APR 17 2015

NOTE: "FAIR" INDICATES FEW OR NO CLOUDS BELOW 12,000 FEET WITH NO
SIGNIFICANT WEATHER AND/OR OBSTRUCTIONS TO VISIBILITY.


NDZ001>003-009>011-017-172200-
NORTHWEST NORTH DAKOTA

CITY           SKY/WX    TMP DP  RH WIND       PRES   REMARKS
WILLISTON      SUNNY     71  24  17 N7        30.10F
MINOT          SUNNY     70  27  20 N13G23    30.09F
MINOT AFB      SUNNY     68  29  23 N13G18    30.09F
$$

NDZ018>021-031>035-040>046-172200-
SOUTHWEST NORTH DAKOTA

CITY           SKY/WX    TMP DP  RH WIND       PRES   REMARKS
BISMARCK       MOSUNNY   72  24  16 N9        30.09F
DICKINSON      MOSUNNY   69  19  15 N8        30.10F
GARRISON         N/A     72  27  18 N12G22    30.08F
HETTINGER ARPT MOSUNNY   68  24  19 N5        30.12F
$$

NDZ004>008-012>016-024-026-027-054-172200-
NORTHEAST NORTH DAKOTA

CITY           SKY/WX    TMP DP  RH WIND       PRES   REMARKS
GRAND FORKS    SUNNY     76  26  15 NW20G29   29.99F
GRND FRKS AFB  SUNNY     77  25  14 N21       30.00F
DEVILS LAKE    SUNNY     70  27  19 NW15G22   30.05S
$$

NDZ022-023-025-028>030-036>039-047>053-172200-
SOUTHEAST NORTH DAKOTA

CITY           SKY/WX    TMP DP  RH WIND       PRES   REMARKS
FARGO          SUNNY     76  17  11 W16G24    30.03F
JAMESTOWN      SUNNY     73  17  12 NW9       30.05F
$$




USA.gov is the U.S. government's official web portal to all federal, state and local government web resources and services.